Other Public Products
Issued by NWS Grand Forks, ND

Home | Current Version | Previous Version | Graphics & Text | Print | Product List | Glossary On
Versions: 1 2 3 4 5 6 7 8 9 10 11 12 13 14 15 16 17 18 19 20 21 22 23 24 25 26 27 28 29 30 31 32 33 34 35 36 37 38 39 40 41 42 43 44 45 46 47 48 49 50
850
FPUS83 KFGF 282131
OPUFGF
PRAIRIE TO PINES WEATHER ROUNDUP
NATIONAL WEATHER SERVICE EASTERN NORTH DAKOTA/GRAND FORKS ND
400 PM CDT SAT MAY 28 2016

 **SATELLITE DATA USED TO AUGMENT SKY COVER AT AUTOMATED STATIONS**
 *****  WEATHER ACROSS EASTERN NORTH DAKOTA  *****

CITY           SKY/WX    TMP DP  RH WIND       PRES   REMARKS
GRAND FORKS    LGT RAIN  66  57  72 E16       29.81S
GRAND FORKS AF PTSUNNY   69  57  63 N8        29.82S
GRAND CITY NWS   N/A     64 N/A N/A E5          N/A
BUXTON           N/A     66  61  83 NE8         N/A
DEVILS LAKE    MOSUNNY   67  57  70 NW8       29.86S
FARGO          CLOUDY    67  57  70 NE15      29.81R
WAHPETON ARPT  CLOUDY    68  52  56 N9        29.80S
$$

 *****  WEATHER ACROSS CENTRAL AND WESTERN NORTH DAKOTA  *****

CITY           SKY/WX    TMP DP  RH WIND       PRES   REMARKS
JAMESTOWN      MOSUNNY   70  57  63 N10       29.83F
BISMARCK       CLOUDY    66  57  72 E6        29.86F
MINOT          CLOUDY    68  53  58 CALM      29.88S
MINOT AFB      CLOUDY    64  54  68 E2        29.88R
GARRISON         N/A     68  52  56 NE7       29.87S
WILLISTON      LGT RAIN  61  55  81 E8        29.87R
DICKINSON      LGT RAIN  58  52  80 W3        29.88S
HETTINGER      LGT RAIN  56  54  93 W6        29.93R FOG
$$

 *****  OTHER OBSERVATIONS NORTHEAST NORTH DAKOTA  *****

CITY           SKY/WX    TMP DP  RH WIND       PRES   REMARKS
WALHALLA       FAIR      64  64 100 N16       29.86S
LANGDON        MOCLDY    66  59  77 NE14      29.87S
CAVALIER       MOCLDY    66  63  88 N12G18    29.85S
GRAFTON        LGT RAIN  66  63  88 NE7G15    29.85R VSB 1
CANDO          FAIR      66  59  77 N10       29.89S
FORT TOTTEN      N/A     70  58  66 NW5       29.95S
ROLLA          MOCLDY    57  57 100 N10       29.91S
RUGBY          FAIR      64  55  72 NE8       29.87S
 ***** THE ABOVE OBSERVATIONS ARE NON NWS ARE NOT QUALITY
        CONTROLLED AND MAY MIS-REPORT RAIN FOR SNOW...
$$

 *****  OTHER OBSERVATIONS SOUTHEAST NORTH DAKOTA *****

CITY           SKY/WX    TMP DP  RH WIND       PRES   REMARKS
COOPERSTOWN    NOT AVBL
VALLEY CITY    MOCLDY    66  61  82 NW6       29.85S
OAKES            N/A    N/A N/A N/A MISG        N/A
GWINNER        MOCLDY    70  57  64 N9        29.82S
SHEYENNE NWR     N/A     70  56  61 N6        29.95
BUFFALO          N/A     70  50  48 N10         N/A
WYNDMERE         N/A     70  57  64 NE6         N/A
 ***** THE ABOVE OBSERVATIONS ARE NON NWS ARE NOT QUALITY
       CONTROLLED AND MAY MIS-REPORT RAIN FOR SNOW...
$$

  *****  WEATHER ACROSS NORTHERN MINNESOTA  *****

CITY           SKY/WX    TMP DP  RH WIND       PRES   REMARKS
FLAG ISLAND    CLOUDY    61  54  77 NE15G24   29.84S
WARROAD        DRIZZLE   59  55  88 NE12G18   29.85S
ROSEAU         LGT RAIN  61  55  82 E12       29.84S
HALLOCK        CLOUDY    72  57  60 CALM      29.82S
THF RVR FALLS  CLOUDY    61  57  88 N10       29.84S
HALSTAD        NOT AVBL
FOSSTON        DRIZZLE   59  57  94 N6        29.82S
BAUDETTE       LGT RAIN  59  57  93 NE14G22   29.82R FOG
WASKISH        CLOUDY    61  57  88 NE8       29.81S
CROOKSTON      DRIZZLE   63  57  82 NE7       29.84R
$$
  *****  WEATHER ACROSS CENTRAL AND WEST MINNESOTA  *****

CITY           SKY/WX    TMP DP  RH WIND       PRES   REMARKS
BEMIDJI        CLOUDY    60  56  85 N6        29.80R
PARK RAPIDS    CLOUDY    61  57  87 VRB3      29.80S
WADENA         CLOUDY    61  54  77 CALM      29.80S
DETROIT LAKES  DRIZZLE   59  57  94 NE3       29.83R
MOORHEAD       CLOUDY    64  57  77 N12       29.82R
FERGUS FALLS   CLOUDY    64  55  72 N5        29.77S
ELBOW LAKE     DRIZZLE   63  57  82 CALM      29.81S
MORRIS MN      LGT RAIN  64  59  82 NW6       29.79S
STAPLES        LGT RAIN  59  55  88 NW3       29.81S
WHEATON        CLOUDY    70  57  64 N10       29.82R
$$
  *****  WEATHER ELSEWHERE ACROSS MINNESOTA  *****

CITY           SKY/WX    TMP DP  RH WIND       PRES   REMARKS
DULUTH         CLOUDY    63  56  78 VRB3      29.78S
INTRNTL FALLS  LGT RAIN  59  58  96 E5        29.81R VSB 3/4
ELY            CLOUDY    61  59  94 NE3       29.79S
CLOQUET        CLOUDY    63  55  77 SW3       29.79R
BRAINERD       LGT RAIN  60  58  92 NW3       29.80S FOG
HIBBING        CLOUDY    60  57  89 CALM      29.78S
ALEXANDRIA     LGT RAIN  62  57  83 NW5       29.81F
SAINT CLOUD    CLOUDY    64  59  83 NW5       29.78S
MINNEAPOLIS    CLOUDY    64  61  90 N12       29.75F
$$

  *****  WEATHER ACROSS SOUTH DAKOTA  *****

CITY           SKY/WX    TMP DP  RH WIND       PRES   REMARKS
SIOUX FALLS    CLOUDY    65  58  78 NE8       29.78R
BROOKINGS      CLOUDY    63  58  83 NE10      29.81R
WATERTOWN      CLOUDY    64  58  80 NE8       29.82R
HURON          LGT RAIN  62  60  93 MISG      29.83S
SISSETON         N/A     69  53  56 NE9       29.79S
ABERDEEN       LGT RAIN  63  57  81 NW3       29.83S
MITCHELL       CLOUDY    64  60  87 NW12      29.84R
PIERRE         CLOUDY    74  53  48 MISG      29.84S
MOBRIDGE       PTSUNNY   74  48  39 NW3       29.82F
RAPID CITY     CLOUDY    64  53  67 W7        29.94S
$$

  *****  SOME WEATHER IN NEARBY STATES *****

CITY           SKY/WX    TMP DP  RH WIND       PRES   REMARKS
GLASGOW MT     MOSUNNY   64  48  56 NW12      29.90F
GREAT FALLS MT PTSUNNY   62  27  26 W20       29.98S
CHEYENNE WY    MOSUNNY   67  32  27 W15G23    30.03R
SCOTTSBLUFF NE MOSUNNY   76  42  29 SW7       29.92F
OMAHA NE       PTSUNNY   71  56  58 W23G31    29.80S
DES MOINES IA  MOSUNNY   73  65  75 SW13      29.79S
DAVENPORT IA   PTSUNNY   79  64  60 S18       29.79F
CHICAGO IL     PTSUNNY   79  65  62 S15G26    29.89F
EAU CLAIRE WI  PTSUNNY   74  64  71 VRB6      29.75S
LA CROSSE WI   PTSUNNY   79  62  56 S15G22    29.75S
$$

  *****  SOME NATIONAL WEATHER *****

CITY           SKY/WX    TMP DP  RH WIND       PRES   REMARKS
LA GUARDIA NY  FAIR      88  64  45 S13       30.06F
RALEIGH NC     FAIR      87  58  37 E9        30.12F
ATLANTA GA     FAIR      86  51  29 NE9       30.09F
NEW ORLEANS LA PTSUNNY   79  70  74 E9        30.02F
OKLAHOMA CITY  FAIR      83  64  52 S8        29.95S
ALBUQUERQUE NM MOSUNNY   77  23  13 VRB5      30.06F
SALT LAKE CITY MOSUNNY   73  42  32 N8        30.01F
LOS ANGELES CA PTSUNNY   67  56  67 W13       29.89F
BOISE ID       SUNNY     66  25  21 NW9       30.06F
SEATTLE WA     CLOUDY    61  47  59 SW14      30.05F
$$

*** WEATHER ACROSS MANITOBA...SASKATCHEWAN AND ONTARIO ***
                ***ONTARIO***

CITY           SKY/WX    TMP DP  RH WIND       PRES   REMARKS
GERALDTON      LGT RAIN  57  57 100 NE12      29.90R VSB 1
THUNDER BAY    CLOUDY    59  57  94 E10       29.80R FOG
SIOUX LOOKOUT  DRIZZLE   54  52  94 NE7       29.90F FOG
TORONTO        MOSUNNY   86  64  48 S9        30.02F
BIG TROUT LK   PTSUNNY   54  43  66 E10G17    30.14S
PICKLE LAKE    CLOUDY    50  46  87 NE15G23   30.02S
DRYDEN         LGT RAIN  55  54  94 NE17G23   29.87S FOG
KENORA         CLOUDY    59  54  82 N8G18     29.88F
$$
                *** MANITOBA***

CITY           SKY/WX    TMP DP  RH WIND       PRES   REMARKS
BRANDON        CLOUDY    55  52  88 NE13      29.93S
DAUPHIN        CLOUDY    54  48  82 N9        29.97F
ISLAND LAKE    CLOUDY    48  41  76 E13G20    30.10
PILOT MOUND      N/A     61  57  88 N12         N/A
THE PAS        CLOUDY    54  41  62 NE8       30.05F
THOMPSON       CLOUDY    46  37  71 E7        30.14F
WINNIPEG       PTSUNNY   66  59  77 NE16G22   29.88S
LYNN LAKE      CLOUDY    46  37  71 SE10      30.12F
CHURCHILL      MOSUNNY   46  36  66 E14       30.28F
GILLAM         PTSUNNY   48  36  61 E6        30.21F
$$
                ***SASKATCHEWAN***

CITY           SKY/WX    TMP DP  RH WIND       PRES   REMARKS
ESTEVAN        PTSUNNY   63  54  72 E12       29.90F
KINDERSLEY     CLOUDY    52  46  82 NE3       29.87S
LLOYDMINSTER   LGT RAIN  54  50  87 W8        29.87S
PRINCE ALBERT  PTSUNNY   61  48  63 E13G21    29.93F
REGINA         CLOUDY    61  50  67 SE10      29.89F
YORKTON        CLOUDY    57  48  72 E7        29.94F   C1F1C2F2C3F3C4F4C5F5C6F6C7F7C8F8C9F9CaFaCbFbCcFcCdFdCe!



USA.gov is the U.S. government's official web portal to all federal, state and local government web resources and services.